International Skating Union - Official Site

ISU World Single Distances Championships 2017
February 9-12,2017

Draw | Lap Times | Index

Referee: Dan  IMMERFALL  (USA)
Starter: Jan  ZWIER  (NED)
StartTime: EndTime: Air Temp: Ice Temp: Humidity:
20:37 22:29 15℃ -9.3℃ 15%
Result 10000m Men
Rankings as of Feb 12 2017 8:48PM
Rank: No.: Name: Nation: Time: Behind:
1 58 Sven  Kramer NED NED 12:38.89400m - 34.26 - (34.2)
800m - 1:04.54 - (30.2)
1200m - 1:35.03 - (30.4)
1600m - 2:05.43 - (30.4)
2000m - 2:35.84 - (30.4)
2400m - 3:06.13 - (30.2)
2800m - 3:36.51 - (30.3)
3200m - 4:07.03 - (30.5)
3600m - 4:37.33 - (30.3)
4000m - 5:07.53 - (30.2)
4400m - 5:38.13 - (30.6)
4800m - 6:08.27 - (30.1)
5200m - 6:38.40 - (30.1)
5600m - 7:08.54 - (30.1)
6000m - 7:38.64 - (30.1)
6400m - 8:08.65 - (30.0)
6800m - 8:38.52 - (29.8)
7200m - 9:08.58 - (30.0)
7600m - 9:38.69 - (30.1)
8000m - 10:08.56 - (29.8)
8400m - 10:38.61 - (30.0)
8800m - 11:08.68 - (30.0)
9200m - 11:38.84 - (30.1)
9600m - 12:08.67 - (29.8)
10000m - 12:38.89 - (30.2)
2 53 Jorrit  Bergsma NED NED 12:43.95400m - 34.67 - (34.6)
800m - 1:05.40 - (30.7)
1200m - 1:36.53 - (31.1)
1600m - 2:06.90 - (30.3)
2000m - 2:37.10 - (30.2)
2400m - 3:07.31 - (30.2)
2800m - 3:37.49 - (30.1)
3200m - 4:07.66 - (30.1)
3600m - 4:37.63 - (29.9)
4000m - 5:07.50 - (29.8)
4400m - 5:37.44 - (29.9)
4800m - 6:07.41 - (29.9)
5200m - 6:37.47 - (30.0)
5600m - 7:07.19 - (29.7)
6000m - 7:36.94 - (29.7)
6400m - 8:06.66 - (29.7)
6800m - 8:36.49 - (29.8)
7200m - 9:06.09 - (29.6)
7600m - 9:36.00 - (29.9)
8000m - 10:06.09 - (30.0)
8400m - 10:36.29 - (30.2)
8800m - 11:06.80 - (30.5)
9200m - 11:37.86 - (31.0)
9600m - 12:09.93 - (32.0)
10000m - 12:43.95 - (34.0)
5.06
3 23 Patrick  Beckert GER GER 12:52.76400m - 34.68 - (34.6)
800m - 1:04.72 - (30.0)
1200m - 1:35.28 - (30.5)
1600m - 2:06.06 - (30.7)
2000m - 2:36.57 - (30.5)
2400m - 3:07.41 - (30.8)
2800m - 3:38.21 - (30.8)
3200m - 4:09.07 - (30.8)
3600m - 4:39.98 - (30.9)
4000m - 5:10.88 - (30.9)
4400m - 5:41.68 - (30.8)
4800m - 6:12.62 - (30.9)
5200m - 6:43.54 - (30.9)
5600m - 7:14.53 - (30.9)
6000m - 7:45.64 - (31.1)
6400m - 8:16.63 - (30.9)
6800m - 8:47.79 - (31.1)
7200m - 9:18.84 - (31.0)
7600m - 9:49.96 - (31.1)
8000m - 10:20.99 - (31.0)
8400m - 10:51.93 - (30.9)
8800m - 11:22.52 - (30.5)
9200m - 11:52.98 - (30.4)
9600m - 12:23.02 - (30.0)
10000m - 12:52.76 - (29.7)
13.87
4 7 Ted-Jan  Bloemen CAN CAN 12:54.63400m - 33.84 - (33.8)
800m - 1:03.82 - (29.9)
1200m - 1:34.28 - (30.4)
1600m - 2:04.79 - (30.5)
2000m - 2:35.37 - (30.5)
2400m - 3:05.86 - (30.4)
2800m - 3:36.37 - (30.5)
3200m - 4:06.92 - (30.5)
3600m - 4:37.68 - (30.7)
4000m - 5:08.25 - (30.5)
4400m - 5:38.85 - (30.6)
4800m - 6:09.69 - (30.8)
5200m - 6:40.81 - (31.1)
5600m - 7:11.92 - (31.1)
6000m - 7:42.96 - (31.0)
6400m - 8:14.24 - (31.2)
6800m - 8:45.36 - (31.1)
7200m - 9:16.56 - (31.2)
7600m - 9:48.01 - (31.4)
8000m - 10:19.54 - (31.5)
8400m - 10:50.94 - (31.4)
8800m - 11:22.25 - (31.3)
9200m - 11:53.09 - (30.8)
9600m - 12:24.11 - (31.0)
10000m - 12:54.63 - (30.5)
15.74
5 29 Davide  Ghiotto ITA ITA 13:01.38400m - 35.37 - (35.3)
800m - 1:06.94 - (31.5)
1200m - 1:38.14 - (31.2)
1600m - 2:08.89 - (30.7)
2000m - 2:39.45 - (30.5)
2400m - 3:10.74 - (31.2)
2800m - 3:41.94 - (31.2)
3200m - 4:12.98 - (31.0)
3600m - 4:44.09 - (31.1)
4000m - 5:15.20 - (31.1)
4400m - 5:46.33 - (31.1)
4800m - 6:17.69 - (31.3)
5200m - 6:49.10 - (31.4)
5600m - 7:20.69 - (31.5)
6000m - 7:51.91 - (31.2)
6400m - 8:22.97 - (31.0)
6800m - 8:54.17 - (31.2)
7200m - 9:25.20 - (31.0)
7600m - 9:56.11 - (30.9)
8000m - 10:27.21 - (31.1)
8400m - 10:58.34 - (31.1)
8800m - 11:29.30 - (30.9)
9200m - 12:00.09 - (30.7)
9600m - 12:31.08 - (30.9)
10000m - 13:01.38 - (30.3)
22.49
6 6 Jordan  Belchos CAN CAN 13:01.40400m - 34.26 - (34.2)
800m - 1:04.37 - (30.1)
1200m - 1:35.27 - (30.9)
1600m - 2:05.89 - (30.6)
2000m - 2:36.56 - (30.6)
2400m - 3:07.29 - (30.7)
2800m - 3:38.04 - (30.7)
3200m - 4:08.91 - (30.8)
3600m - 4:39.89 - (30.9)
4000m - 5:10.59 - (30.7)
4400m - 5:41.66 - (31.0)
4800m - 6:12.66 - (31.0)
5200m - 6:43.72 - (31.0)
5600m - 7:14.96 - (31.2)
6000m - 7:46.48 - (31.5)
6400m - 8:17.94 - (31.4)
6800m - 8:49.66 - (31.7)
7200m - 9:21.24 - (31.5)
7600m - 9:52.90 - (31.6)
8000m - 10:24.75 - (31.8)
8400m - 10:56.36 - (31.6)
8800m - 11:27.85 - (31.4)
9200m - 11:59.12 - (31.2)
9600m - 12:30.46 - (31.3)
10000m - 13:01.40 - (30.9)
22.51
7 41 Ryosuke  Tsuchiya JPN JPN 13:11.94400m - 35.59 - (35.5)
800m - 1:07.44 - (31.8)
1200m - 1:39.35 - (31.9)
1600m - 2:11.36 - (32.0)
2000m - 2:42.92 - (31.5)
2400m - 3:14.32 - (31.4)
2800m - 3:45.59 - (31.2)
3200m - 4:16.98 - (31.3)
3600m - 4:48.41 - (31.4)
4000m - 5:20.14 - (31.7)
4400m - 5:51.82 - (31.6)
4800m - 6:23.20 - (31.3)
5200m - 6:54.61 - (31.4)
5600m - 7:26.01 - (31.4)
6000m - 7:57.30 - (31.2)
6400m - 8:28.60 - (31.3)
6800m - 8:59.80 - (31.2)
7200m - 9:31.18 - (31.3)
7600m - 10:02.76 - (31.5)
8000m - 10:34.49 - (31.7)
8400m - 11:06.29 - (31.8)
8800m - 11:37.63 - (31.3)
9200m - 12:09.05 - (31.4)
9600m - 12:40.53 - (31.4)
10000m - 13:11.94 - (31.4)
33.05
8 92 Nils  van der Poel SWE SWE 13:14.84400m - 34.78 - (34.7)
800m - 1:05.69 - (30.9)
1200m - 1:37.31 - (31.6)
1600m - 2:08.90 - (31.5)
2000m - 2:40.06 - (31.1)
2400m - 3:11.14 - (31.0)
2800m - 3:42.25 - (31.1)
3200m - 4:13.40 - (31.1)
3600m - 4:44.56 - (31.1)
4000m - 5:15.60 - (31.0)
4400m - 5:46.66 - (31.0)
4800m - 6:17.63 - (30.9)
5200m - 6:48.59 - (30.9)
5600m - 7:19.98 - (31.3)
6000m - 7:51.57 - (31.5)
6400m - 8:23.25 - (31.6)
6800m - 8:55.35 - (32.1)
7200m - 9:27.85 - (32.5)
7600m - 10:00.30 - (32.4)
8000m - 10:32.77 - (32.4)
8400m - 11:05.25 - (32.4)
8800m - 11:38.25 - (33.0)
9200m - 12:11.05 - (32.8)
9600m - 12:43.33 - (32.2)
10000m - 13:14.84 - (31.5)
35.95
9 25 Moritz  Geisreiter GER GER 13:23.15400m - 34.84 - (34.8)
800m - 1:06.44 - (31.6)
1200m - 1:38.10 - (31.6)
1600m - 2:09.46 - (31.3)
2000m - 2:40.94 - (31.4)
2400m - 3:12.39 - (31.4)
2800m - 3:44.23 - (31.8)
3200m - 4:16.28 - (32.0)
3600m - 4:48.26 - (31.9)
4000m - 5:20.49 - (32.2)
4400m - 5:52.30 - (31.8)
4800m - 6:24.48 - (32.1)
5200m - 6:56.87 - (32.3)
5600m - 7:29.46 - (32.5)
6000m - 8:01.67 - (32.2)
6400m - 8:34.06 - (32.3)
6800m - 9:06.35 - (32.2)
7200m - 9:38.30 - (31.9)
7600m - 10:09.80 - (31.5)
8000m - 10:41.89 - (32.0)
8400m - 11:14.08 - (32.1)
8800m - 11:46.51 - (32.4)
9200m - 12:18.84 - (32.3)
9600m - 12:51.08 - (32.2)
10000m - 13:23.15 - (32.0)
44.26
10 85 Danila  Semerikov RUS RUS 13:34.99400m - 35.43 - (35.4)
800m - 1:07.66 - (32.2)
1200m - 1:39.96 - (32.3)
1600m - 2:11.81 - (31.8)
2000m - 2:43.96 - (32.1)
2400m - 3:15.80 - (31.8)
2800m - 3:47.86 - (32.0)
3200m - 4:20.04 - (32.1)
3600m - 4:52.07 - (32.0)
4000m - 5:24.17 - (32.1)
4400m - 5:56.50 - (32.3)
4800m - 6:28.63 - (32.1)
5200m - 7:00.87 - (32.2)
5600m - 7:33.24 - (32.3)
6000m - 8:05.64 - (32.4)
6400m - 8:38.14 - (32.5)
6800m - 9:10.50 - (32.3)
7200m - 9:42.96 - (32.4)
7600m - 10:15.52 - (32.5)
8000m - 10:48.88 - (33.3)
8400m - 11:22.20 - (33.3)
8800m - 11:55.34 - (33.1)
9200m - 12:28.61 - (33.2)
9600m - 13:02.12 - (33.5)
10000m - 13:34.99 - (32.8)
56.10
11 68 Simen Spieler  Nilsen NOR NOR 13:35.24400m - 35.34 - (35.3)
800m - 1:07.58 - (32.2)
1200m - 1:40.04 - (32.4)
1600m - 2:11.83 - (31.7)
2000m - 2:43.78 - (31.9)
2400m - 3:15.46 - (31.6)
2800m - 3:47.32 - (31.8)
3200m - 4:19.35 - (32.0)
3600m - 4:51.08 - (31.7)
4000m - 5:22.77 - (31.6)
4400m - 5:54.69 - (31.9)
4800m - 6:26.73 - (32.0)
5200m - 6:58.85 - (32.1)
5600m - 7:31.10 - (32.2)
6000m - 8:03.71 - (32.6)
6400m - 8:36.22 - (32.5)
6800m - 9:09.37 - (33.1)
7200m - 9:42.50 - (33.1)
7600m - 10:15.73 - (33.2)
8000m - 10:49.26 - (33.5)
8400m - 11:22.39 - (33.1)
8800m - 11:55.63 - (33.2)
9200m - 12:28.97 - (33.3)
9600m - 13:02.44 - (33.4)
10000m - 13:35.24 - (32.8)
56.35
12 31 Michele  Malfatti ITA ITA DQ400m - 35.73 - (35.7)
800m - 1:06.57 - (30.8)
1200m - 1:38.34 - (31.7)
1600m - 2:09.01 - (30.6)
2000m - 2:39.67 - (30.6)
2400m - 3:10.56 - (30.8)
2800m - 3:41.97 - (31.4)
3200m - 4:13.07 - (31.1)
3600m - 4:44.36 - (31.2)
4000m - 5:15.73 - (31.3)
4400m - 5:47.26 - (31.5)
4800m - 6:18.93 - (31.6)
5200m - 6:50.54 - (31.6)
5600m - 7:22.21 - (31.6)
6000m - 7:53.98 - (31.7)
6400m - 8:25.80 - (31.8)
6800m - 8:57.60 - (31.8)
7200m - 9:29.40 - (31.8)
7600m - 10:01.31 - (31.9)
8000m - 10:33.44 - (32.1)
8400m - 11:05.45 - (32.0)
8800m - 11:37.65 - (32.2)
9200m - 12:09.95 - (32.3)
9600m - 12:42.19 - (32.2)
10000m - 13:14.31 - (32.1)